Location: Unspecified
(0.0000°N, 0.0000°E)
Time: 20:21:47
(UTC+00:00)

USA 179 - Visible Passes

Search period start: 17 October 2019 00:00
Search period end: 27 October 2019 00:00
Orbit: 1484 x 38871 km, 63.4° (Epoch: 02 October)

Date Brightness Start Highest point End Pass type
(mag) Time Alt. Az. Time Alt. Az. Time Alt. Az.
17 Oct ? 10:47:25 10° SSW 22:15:40 - SE 21:33:46 52° NE visible
18 Oct ? 10:43:03 10° SSW 22:11:14 - SE 21:30:10 53° NE visible
19 Oct ? 10:38:41 10° SSW 22:06:46 - SE 21:26:38 53° NE visible
20 Oct ? 10:34:18 10° SSW 22:02:18 - SE 21:23:10 53° NE visible
21 Oct ? 10:29:56 10° SSW 21:57:48 - SE 21:19:46 54° NE visible
22 Oct ? 10:25:34 10° SSW 21:53:16 - SE 21:16:27 54° NE visible
23 Oct ? 10:21:11 10° SSW 21:48:44 - SE 21:13:11 54° NE visible
24 Oct ? 10:16:49 10° SSW 21:44:09 - SE 21:10:01 55° NE visible
25 Oct ? 10:12:27 10° SSW 21:39:32 - SE 21:06:55 55° NE visible
26 Oct ? 10:08:04 10° SSW 21:34:53 10° SE 21:35:00 10° SE visible
